www.pogodaiklimat.ru

Погода и климат >> Архив погоды >> Австралия >> Perth


АРХИВ ПОГОДЫ в Perth

Время (UTC), дата Ветер
(напр.,м/с)
 
Видим.   Явления Облачность Т
(С)
Тd
(С)
f
(%)
Тe
(С)
Тes
(С)
Комфортность P
(гПа)
Po
(гПа)
Тmin
(С)
Tmax
(С)
R
(мм)
R24
(мм)
S
(см)
10 18.05 ЮВ 4 30 км ясно +18.9 +5.0 40 +19 +19 тепло 1027.2 1024.8
11 18.05 В 1 н/о н/о +21.7 1025.3
12 18.05 В 3 н/о н/о +13.9 +4.5 53 +13 +13 по сезону 1027.6 1025.2
13 18.05 В 5 30 км ясно +15.7 +4.2 46 +15 +15 тепло 1027.6 1025.2 +24.5
15 18.05 В 5 н/о н/о +16.3 +3.1 41 +15 +15 тепло 1027.2 1024.8
16 18.05 В 7 30 км ясно +15.6 +3.5 44 +14 +14 тепло 1027.0 1024.6
17 18.05 СВ 1 н/о н/о +16.5 1024.5
18 18.05 ЮВ 3 н/о н/о +12.0 +3.9 58 +11 +11 по сезону 1027.1 1024.7
19 18.05 В 4 30 км ясно +11.1 +4.1 62 +9 +9 по сезону 1027.3 1024.9
21 18.05 В 4 н/о н/о +10.7 +3.6 61 +9 +9 по сезону 1027.4 1025.0
23 18.05 В 1 н/о н/о +11.3 1025.8
22 18.05 В 3 30 км ясно +9.4 +4.1 69 +7 +7 прохладно 1027.8 1025.4
00 19.05 В 5 н/о н/о +12.5 +3.5 54 +11 +11 по сезону 1028.7 1026.3
01 19.05 В 5 30 км ясно +15.3 +3.9 46 +14 +16 по сезону 1028.9 1026.5 +8.7
03 19.05 СВ 3 н/о н/о +20.7 +4.6 35 +22 +22 комфорт 1028.1 1025.7
04 19.05 С 3 30 км 1/0
[Ci fib]
+22.1 +3.8 30 +22 +29 комфорт 1027.1 1024.7
06 19.05 В 3 н/о н/о +22.7 +2.2 26 +22 +22 комфорт 1025.6 1023.2
07 19.05 В 2 30 км ясно +23.9 +1.7 23 +23 +27 комфорт 1025.4 1023.0
09 19.05 ЮВ 3 н/о н/о +21.9 +4.7 33 +22 +22 комфорт 1025.4 1023.0
10 19.05 ЮВ 2 30 км ясно +15.8 +5.2 49 +16 +16 тепло 1025.8 1023.4
11 19.05 штиль 0 н/о н/о +22.1 1024.1
12 19.05 Ю 3 н/о н/о +11.0 +6.3 73 +9 +9 прохладно 1026.8 1024.4
13 19.05 В 3 30 км ясно +13.2 +3.6 52 +12 +12 по сезону 1027.3 1024.9 +24.3
15 19.05 В 3 н/о н/о +15.1 +2.1 41 +15 +15 тепло 1027.1 1024.7
17 19.05 В 2 н/о н/о +15.3 1024.6
16 19.05 СВ 3 30 км ясно +14.2 +3.5 49 +13 +13 тепло 1027.2 1024.8
18 19.05 В 7 н/о н/о +13.5 +1.9 45 +11 +11 по сезону 1026.8 1024.4
19 19.05 В 5 30 км ясно +12.8 +2.1 48 +11 +11 по сезону 1026.9 1024.5
21 19.05 В 5 н/о н/о +11.7 +2.4 53 +10 +10 по сезону 1027.4 1025.0
22 19.05 В 5 30 км ясно +10.6 +2.1 56 +8 +8 по сезону 1027.4 1025.0
23 19.05 СВ 1 н/о н/о +12.0 1025.8
00 20.05 В 3 н/о н/о +11.4 +2.2 53 +10 +10 по сезону 1028.8 1026.4
01 20.05 В 5 30 км ясно +14.9 +2.1 42 +14 +15 по сезону 1029.3 1026.9 +9.5
03 20.05 В 3 н/о н/о +20.3 +3.3 33 +21 +21 комфорт 1028.9 1026.5
04 20.05 В 2 30 км ясно +22.3 +1.8 26 +22 +30 комфорт 1028.2 1025.8
05 20.05 СЗ 1 н/о н/о +20.4 1024.9
06 20.05 С 3 н/о н/о +24.0 +0.8 22 +23 +23 комфорт 1026.3 1023.9
07 20.05 ЮВ 3 30 км ясно +24.4 +2.0 23 +23 +27 комфорт 1025.8 1023.4
09 20.05 В 4 н/о н/о +22.1 +1.5 26 +22 +22 комфорт 1025.7 1023.3
10 20.05 В 3 30 км ясно +16.9 +3.4 41 +17 +17 тепло 1026.1 1023.7
11 20.05 В 1 н/о н/о +22.0 1024.3
12 20.05 В 3 н/о н/о +11.2 +4.0 61 +10 +10 по сезону 1027.0 1024.6
13 20.05 СВ 2 30 км ясно +10.1 +3.4 63 +9 +9 по сезону 1027.1 1024.7 +24.9
15 20.05 СВ 3 н/о н/о +10.9 +3.0 58 +10 +10 по сезону 1026.8 1024.4
17 20.05 В 1 н/о н/о +12.2 1024.2
16 20.05 В 4 30 км ясно +13.1 +2.9 50 +12 +12 тепло 1026.5 1024.1
18 20.05 В 5 н/о н/о +14.1 +2.8 46 +13 +13 тепло 1026.6 1024.2
19 20.05 В 5 30 км ясно +13.0 +3.0 51 +11 +11 тепло 1026.6 1024.2
21 20.05 В 5 н/о н/о +12.7 +3.7 54 +11 +11 по сезону 1026.9 1024.5
22 20.05 В 6 30 км ясно +12.4 +3.9 56 +10 +10 по сезону 1027.5 1025.1
23 20.05 В 2 н/о н/о +13.1 1025.8
00 21.05 В 6 н/о н/о +13.9 +4.0 51 +12 +12 по сезону 1028.6 1026.2
01 21.05 В 5 30 км ясно +16.8 +5.0 46 +16 +17 по сезону 1028.9 1026.5 +8.0
03 21.05 СВ 6 н/о н/о +22.9 +5.5 32 +23 +23 комфорт 1027.7 1025.3
04 21.05 С 5 30 км ясно +22.8 +4.7 31 +23 +27 комфорт 1026.6 1024.2
05 21.05 СВ 1 н/о н/о +22.5 1023.1
06 21.05 В 5 н/о н/о +25.1 +3.7 25 +24 +24 комфорт 1024.3 1021.9
07 21.05 В 5 30 км ясно +25.4 +2.6 23 +24 +26 комфорт 1023.6 1021.2
09 21.05 В 5 н/о н/о +22.7 +3.0 27 +22 +22 комфорт 1023.7 1021.3
10 21.05 В 3 30 км ясно +17.8 +5.6 45 +18 +18 тепло 1024.2 1021.8
11 21.05 В 1 н/о н/о +22.4 1022.5
12 21.05 В 4 н/о н/о +14.3 +3.4 48 +13 +13 по сезону 1024.9 1022.5
13 21.05 В 4 30 км ясно +15.1 +2.8 44 +14 +14 тепло 1025.2 1022.8 +25.8
15 21.05 СВ 5 н/о н/о +16.1 +2.1 39 +15 +15 тепло 1025.0 1022.6
17 21.05 СВ 1 н/о н/о +16.3 1022.5
16 21.05 СВ 5 30 км дым ясно +15.8 +2.3 40 +15 +15 тепло 1024.6 1022.2
18 21.05 СВ 6 н/о н/о +14.8 +2.3 43 +13 +13 тепло 1024.2 1021.8
19 21.05 В 5 30 км ясно +14.2 +2.4 45 +13 +13 тепло 1024.0 1021.6
21 21.05 В 5 н/о н/о +13.3 +2.6 48 +12 +12 по сезону 1024.1 1021.7
22 21.05 В 5 30 км ясно +13.0 +2.4 49 +11 +11 по сезону 1024.2 1021.8
23 21.05 В 1 н/о н/о +13.7 1022.1
00 22.05 В 5 н/о н/о +14.9 +2.2 42 +14 +14 тепло 1024.7 1022.3
01 22.05 В 6 30 км ясно +17.4 +3.0 38 +17 +18 тепло 1024.7 1022.3 +12.1
03 22.05 СВ 7 н/о н/о +23.8 +1.9 24 +23 +23 комфорт 1023.6 1021.2
04 22.05 СВ 5 30 км ясно +25.3 +2.0 22 +24 +28 комфорт 1022.4 1020.0
05 22.05 С 1 н/о н/о +24.1 1019.0
06 22.05 З 3 н/о н/о +27.3 -3.5 13 +25 +25 комфорт 1020.2 1017.8
07 22.05 С 4 30 км ясно +27.7 -2.8 13 +25 +28 комфорт 1020.0 1017.6
09 22.05 С 3 н/о н/о +24.3 +4.3 27 +24 +24 комфорт 1020.1 1017.7
10 22.05 Ю 1 30 км 1/0
[Ci sp]
+17.8 +5.1 43 +19 +19 тепло 1020.4 1018.0
11 22.05 СВ 1 н/о н/о +24.0 1018.8
12 22.05 штиль 0 н/о н/о +12.9 +2.9 51 +13 +13 по сезону 1021.2 1018.8
13 22.05 С 3 30 км ясно +12.5 +3.5 54 +12 +12 тепло 1021.4 1019.0 +28.1
15 22.05 СВ 4 н/о н/о +15.9 +0.2 34 +15 +15 тепло 1021.4 1019.0
17 22.05 СВ 1 н/о н/о +16.3 1018.6
16 22.05 В 6 25 км дым ясно +16.1 -0.6 32 +15 +15 тепло 1021.0 1018.6
18 22.05 СВ 4 н/о н/о +15.5 -0.2 34 +15 +15 тепло 1020.5 1018.1
19 22.05 В 5 20 км дым ясно +15.0 +0.1 36 +14 +14 тепло 1020.4 1018.0
21 22.05 В 6 н/о н/о +14.3 -0.8 35 +13 +13 тепло 1019.9 1017.5
22 22.05 В 5 25 км дым 1/0
[Ci fib]
+13.8 -0.5 37 +12 +12 тепло 1019.9 1017.5
23 22.05 СВ 1 н/о н/о +14.5 1017.8
00 23.05 СВ 5 н/о н/о +15.1 -0.1 35 +14 +14 тепло 1020.4 1018.0
01 23.05 СВ 5 30 км 1/0
[Ci sp]
+18.4 -0.4 28 +18 +19 тепло 1020.5 1018.1 +12.1
03 23.05 СВ 6 н/о н/о +24.8 -1.8 17 +23 +23 комфорт 1019.4 1017.0
04 23.05 СВ 5 30 км 3/0
[Ci sp]
+26.3 -1.7 16 +24 +28 комфорт 1018.2 1015.8
05 23.05 С 1 н/о н/о +24.7 1014.8
06 23.05 С 5 н/о н/о +28.0 -3.9 12 +25 +25 комфорт 1016.1 1013.7
07 23.05 С 4 30 км 4/0
[Ci sp]
+27.6 -5.7 11 +25 +27 комфорт 1015.9 1013.5
09 23.05 С 3 н/о н/о +24.3 +1.6 23 +23 +23 комфорт 1015.2 1012.8
10 23.05 ЮВ 2 30 км 1/0
[Ci sp]
+18.9 +2.3 33 +20 +20 тепло 1015.3 1012.9
11 23.05 СВ 1 н/о н/о +24.3 1013.3
12 23.05 СВ 2 н/о н/о +14.1 +2.3 45 +14 +14 по сезону 1015.5 1013.1
13 23.05 С 3 30 км 1/0
[Ci fib]
+13.4 +1.9 46 +13 +13 тепло 1015.3 1012.9 +28.5
15 23.05 В 4 н/о н/о +15.9 -0.8 32 +15 +15 тепло 1014.7 1012.3
17 23.05 СВ 1 н/о н/о +16.4 1011.2
16 23.05 СВ 5 30 км ясно +16.5 -1.6 29 +16 +16 тепло 1013.8 1011.4
18 23.05 В 5 н/о н/о +16.0 -1.4 30 +15 +15 тепло 1012.6 1010.2
19 23.05 СВ 4 30 км ясно +16.3 -0.1 33 +16 +16 тепло 1012.1 1009.7
21 23.05 С 5 н/о н/о +15.5 0.0 35 +15 +15 тепло 1011.5 1009.1
22 23.05 СВ 6 30 км 9/0
[Cs]
+17.8 -0.3 29 +17 +17 тепло 1010.9 1008.5
23 23.05 СВ 1 н/о н/о +16.1 1008.9
00 24.05 СВ 4 н/о н/о +18.7 -0.1 28 +19 +19 тепло 1011.1 1008.7
01 24.05 СВ 5 30 км 9/1 2000 м
[Sc Ac As Ci sp]
+20.4 +0.6 27 +20 +21 тепло 1011.0 1008.6 +11.2
03 24.05 С 8 н/о н/о +24.3 +0.2 20 +23 +23 комфорт 1009.1 1006.7
04 24.05 С 9 30 км 9/1
[Sc Ac As Ci sp]
+26.4 +0.1 18 +25 +25 комфорт 1007.7 1005.3
05 24.05 н/о н/о +24.6 1003.8
06 24.05 С 10 н/о н/о +27.1 +3.2 21 +26 +26 жарко 1004.6 1002.2
07 24.05 С 7 20 км мгла 9/1
[Sc Cs]
+27.5 +3.3 21 +26 +27 жарко 1003.2 1000.8
09 24.05 С 6 н/о н/о +26.7 +4.8 25 +26 +26 жарко 1000.7 998.4
10 24.05 СВ 5 14 км мгла 10/9
[Sc]
+26.2 +6.4 28 +26 +26 жарко 999.5 997.2
11 24.05 СВ 2 н/о н/о +26.8 994.8
12 24.05 С 11 н/о н/о +18.8 +14.3 75 +19 +19 тепло 1000.3 998.0
13 24.05 СВ 11 7000 м слабый дождь 10/3 1000 м
[Sc As op]
+16.7 +15.0 90 +15 +15 тепло 998.5 996.2 +27.8
15 24.05 0 н/о +15.6 +13 +20 по сезону 998.1 995.8
17 24.05 С 1 н/о н/о +17.6 996.6
16 24.05 СЗ 8 8000 м слабый дождь 9/9 300 м
[Sc]
+15.8 +15.1 96 +14 +14 тепло 998.9 996.6
18 24.05 С 3 н/о н/о +15.0 +13.9 93 +14 +14 тепло 996.2
19 24.05 СВ 1 н/о н/о +15.5 996.3
21 24.05 С 1 н/о н/о +14.6 996.5
23 24.05 С 1 н/о н/о +14.2 997.6
01 25.05 СЗ 1 н/о н/о +13.6 998.5
03 25.05 СЗ 2 н/о н/о +13.9 999.1
04 25.05 СЗ 9 20 км слабый ливневой дождь {гроза} 9/9 300 м
[Cu med, cong]
+18.1 +8.9 55 +17 +17 прохладно 1000.4 998.1
06 25.05 СЗ 10 н/о н/о +16.7 +9.7 63 +15 +15 холодно 999.9 997.6
07 25.05 СЗ 8 18 км слабый ливневой дождь 9/9 300 м
[Cu Sc]
+15.5 +11.0 75 +14 +14 по сезону 1000.4 998.1 10
09 25.05 СЗ 9 н/о н/о +14.4 +11.8 84 +12 +12 прохладно 1001.7 999.3

 

Местоположение метеостанции Perth (Западная Австралия, Австралия): широта -31.93 долгота 115.96 высота над уровнем моря 20 м.

В архиве по умолчанию представлена погода в Perth за последнюю неделю. Архивные данные за месяц целиком и за предыдущие месяцы, начиная с января 2011 года, Вы можете получить, выбрав интересующий диапазон дат из раскрывающегося списка и нажав кнопку "Ввод!".


*Определитесь, кто Вы:
робот инопланетянин человек

Внимание! Время в таблицах - всемирное. Для получения местного времени необходимо прибавить поправку, которая в Perth равна 8 ч.

Смотрите также архив погоды в соседних городах и на ближайших метеорологических станциях:

Погода в Mount Lawley Perth Metro (Западная Австралия, Австралия) (9 км)
Погода в Goosebery Hill (Западная Австралия, Австралия) (9 км)
Погода в Swanbourne (Западная Австралия, Австралия) (18 км)
Погода в Kalamunda Bickley (Западная Австралия, Австралия) (19 км)
Погода в Perth Jandakot Airport (Западная Австралия, Австралия) (20 км)
Погода в Wanneroo (Западная Австралия, Австралия) (29 км)
Погода в Bullsbrook Pearce Amo (Западная Австралия, Австралия) (29 км)
Погода в Garden Island Airpoet (Западная Австралия, Австралия) (43 км)
Погода в Rottnest Island (Западная Австралия, Австралия) (45 км)
Погода в Gingin Aero (Западная Австралия, Австралия) (52 км)

Пояснения к столбцам:

Ветер - указаны скорость ветра в м/с - средняя за 10 мин, порывы в срок и между сроками (в фигурных скобках) и направление, откуда дует ветер: С - северный, СВ - северо-восточный, В - восточный, ЮВ - юго-восточный, Ю - южный, ЮЗ - юго-западный, З - западный, СЗ - северо-западный.
Видимость - горизонтальная дальность видимости в метрах или километрах. При видимости от 1 до 10 км при отсутствии осадков обычно наблюдается дымка, при ухудшении видимости до 1 км и менее - туман. В сухую погоду видимость может ухудшаться дымом, пылью или мглою.
Явления - указаны атмосферные явления, наблюдавшиеся в срок или в последний час перед сроком; фигурными скобками обозначены явления, наблюдавшиеся между сроками (за 1-3 часа до срока); квадратными скобками обозначены град или гололедные отложения с указанием их диаметра в мм.
Облачность - указаны через наклонную черту общая и нижняя облачность в баллах и высота нижней границы облаков в метрах; квадратными скобками обозначены формы облаков: Ci - перистые, Cs - перисто-слоистые, Cc - перисто-кучевые, Ac - высококучевые, As - высокослоистые, Sc - слоисто-кучевые, Ns - слоисто-дождевые, Cu - кучевые, Cb - кучево-дождевые. Подробнее классификацию облаков см. в Атласе облаков (PDF).
T - Температура воздуха - температура, измеренная на высоте 2 м над землей.
Td - Температура точки росы - температура, при понижении до которой содержащийся в воздухе водяной пар достигнет насыщения.
f - Относительная влажность воздуха - влажноcть воздуха, измеренная на высоте 2 м над землей.
Te - Эффективная температура - температура, которую ощущает одетый по сезону человек в тени. Характеристика душности погоды. При расчете учитывается влияние влажности воздуха и скорости ветра на теплоощущения человека.
Tes - Эффективная температура на солнце - температура, которую ощущает человек, с поправкой на солнечный нагрев. Характеристика знойности погоды. Зависит от высоты солнца над горизонтом, облачности и скорости ветра. Ночью, в пасмурную погоду, а также при ветре 12 м/с и более поправка равна нулю.
P - Атмосферное давление - приведенное к уровню моря атмосферное давление.
Po - Атмосферное давление - измеренное на уровне метеостанции атмосферное давление.
Tmin - Минимальная температура - минимум температуры воздуха на высоте 2 м над землей.
Tmax - Максимальная температура - максимум температуры воздуха на высоте 2 м над землей.
R - Количество осадков - Количество выпавших осадков за период времени, мм. При наведении курсора мыши на число - период времени, за который выпало указанное количество осадков.
R24 - Количество осадков - Количество выпавших осадков за 24 часа, мм.
S - Снежный покров - Высота снежного покрова, см. При наведении курсора мыши на число - состояние снежного покрова и степень покрытия местности в баллах.